User: anonymous   Login
Location: Proctor
(47.8934°N, 114.3048°W)
Time: 12:11:16
(UTC+00:00)
Language:

A-11 Canister half - Orbit

View from above orbital plane
View from above orbital plane
View from above satellite
View from above satellite

Ground track
Ground track

The orbit data is extracted from the following two-line orbital elements,

1 00051U 60009C   24176.25973615 -.00000012  00000-0  70328-3 0  9996
2 00051  47.2115 126.2741 0106700 207.9239 151.5796 12.18328512843032
Epoch (UTC): 24 June 2024 06:14:01
Eccentricity: 0.0106700
inclination: 47.2115°
perigee height: 1515 km
apogee height: 1685 km
right ascension of ascending node: 126.2741°
argument of perigee: 207.9239°
revolutions per day: 12.18328512
mean anomaly at epoch: 151.5796°
orbit number at epoch: 84303

The dashed part of the orbit path shows where the satellite is in the earth's shadow,  

DLR